| time (UTC) | temp C | wind direction | speed KPH | gust KPH | rain 1hr cm | rain 24hr cm | rain mn cm | humidity % | barometer mb |
| 20260903211543 | 20 | 281 | 0.0 | 11.3 | 0.00 | 0.00 | 0.00 | 27 | 1015.7 |
| 20260903210046 | 20 | 1 | 0.0 | 8.0 | 0.00 | 0.00 | 0.00 | 27 | 1015.6 |
| 20260903204539 | 20 | 63 | 1.6 | 6.4 | 0.00 | 0.00 | 0.00 | 27 | 1015.5 |
| 20260903203042 | 20 | 207 | 1.6 | 12.9 | 0.00 | 0.00 | 0.00 | 28 | 1015.6 |
| 20260903201538 | 20 | 337 | 0.0 | 9.7 | 0.00 | 0.00 | 0.00 | 27 | 1015.4 |
| 20260903200037 | 21 | 236 | 0.0 | 12.9 | 0.00 | 0.00 | 0.00 | 28 | 1015.3 |
| 20260903194549 | 21 | 217 | 3.2 | 12.9 | 0.00 | 0.00 | 0.00 | 27 | 1015.5 |
| 20260903193038 | 20 | 326 | 1.6 | 11.3 | 0.00 | 0.00 | 0.00 | 27 | 1015.6 |
| 20260903190052 | 20 | 219 | 3.2 | 11.3 | 0.00 | 0.00 | 0.00 | 27 | 1015.6 |
| 20260903183040 | 20 | 355 | 0.0 | 8.0 | 0.00 | 0.00 | 0.00 | 29 | 1015.9 |
| 20260903181545 | 20 | 210 | 0.0 | 6.4 | 0.00 | 0.00 | 0.00 | 29 | 1016.1 |
| 20260903180009 | 20 | 210 | 0.0 | 4.8 | 0.00 | 0.00 | 0.00 | 32 | 1016.2 |
| 20260903174509 | 20 | 213 | 3.2 | 6.4 | 0.00 | 0.00 | 0.00 | 32 | 1016.4 |
| 20260903173007 | 20 | 312 | 0.0 | 6.4 | 0.00 | 0.00 | 0.00 | 30 | 1016.5 |
| 20260903171519 | 20 | 195 | 0.0 | 8.0 | 0.00 | 0.00 | 0.00 | 32 | 1016.7 |
| 20260903170006 | 20 | 241 | 0.0 | 4.8 | 0.00 | 0.00 | 0.00 | 32 | 1016.7 |
| 20260903164504 | 20 | 259 | 0.0 | 3.2 | 0.00 | 0.00 | 0.00 | 33 | 1016.7 |
| 20260903163005 | 20 | 106 | 0.0 | 3.2 | 0.00 | 0.00 | 0.00 | 31 | 1016.8 |
| 20260903161502 | 20 | 106 | 0.0 | 1.6 | 0.00 | 0.00 | 0.00 | 32 | 1016.8 |
| 20260903160106 | 21 | 106 | 0.0 | 1.6 | 0.00 | 0.00 | 0.00 | 31 | 1017.0 |
| 20260903154559 | 21 | 106 | 0.0 | 0.0 | 0.00 | 0.00 | 0.00 | 30 | 1016.9 |
| 20260903153056 | 20 | 106 | 0.0 | 0.0 | 0.00 | 0.00 | 0.00 | 29 | 1017.1 |
| 20260903151553 | 20 | 106 | 0.0 | 1.6 | 0.00 | 0.00 | 0.00 | 32 | 1017.3 |
| 20260903150111 | 20 | 106 | 0.0 | 1.6 | 0.00 | 0.00 | 0.00 | 31 | 1017.4 |
| 20260903144546 | 18 | 106 | 0.0 | 0.0 | 0.00 | 0.00 | 0.00 | 32 | 1017.5 |
| 20260903143044 | 18 | 106 | 0.0 | 1.6 | 0.00 | 0.00 | 0.00 | 35 | 1017.5 |
| 20260903141538 | 17 | 106 | 0.0 | 1.6 | 0.00 | 0.00 | 0.00 | 38 | 1017.5 |
| 20260903140040 | 17 | 108 | 0.0 | 3.2 | 0.00 | 0.00 | 0.00 | 40 | 1017.4 |
| 20260903134529 | 16 | 65 | 0.0 | 1.6 | 0.00 | 0.00 | 0.00 | 45 | 1017.4 |
| 20260903133027 | 15 | 65 | 0.0 | 0.0 | 0.00 | 0.00 | 0.00 | 49 | 1017.4 |
| 20260903131521 | 15 | 59 | 0.0 | 0.0 | 0.00 | 0.00 | 0.00 | 46 | 1017.4 |
| 20260903130017 | 14 | 52 | 0.0 | 0.0 | 0.00 | 0.00 | 0.00 | 50 | 1017.4 |
| 20260903124514 | 13 | 52 | 0.0 | 0.0 | 0.00 | 0.00 | 0.00 | 57 | 1017.3 |
| 20260903123022 | 12 | 52 | 0.0 | 1.6 | 0.00 | 0.00 | 0.00 | 59 | 1017.3 |
| 20260903121507 | 12 | 52 | 0.0 | 0.0 | 0.00 | 0.00 | 0.00 | 57 | 1017.3 |
| 20260903120005 | 11 | 52 | 0.0 | 0.0 | 0.00 | 0.00 | 0.00 | 58 | 1017.2 |
| 20260903114619 | 11 | 52 | 0.0 | 0.0 | 0.00 | 0.00 | 0.00 | 53 | 1017.0 |
| 20260903113103 | 11 | 52 | 0.0 | 0.0 | 0.00 | 0.00 | 0.00 | 54 | 1016.8 |
| 20260903111614 | 11 | 52 | 0.0 | 0.0 | 0.00 | 0.00 | 0.00 | 56 | 1016.7 |
| 20260903110052 | 11 | 52 | 0.0 | 0.0 | 0.00 | 0.00 | 0.00 | 58 | 1016.5 |
| 20260903104554 | 11 | 52 | 0.0 | 0.0 | 0.00 | 0.00 | 0.00 | 55 | 1016.5 |
| 20260903103056 | 10 | 52 | 0.0 | 0.0 | 0.00 | 0.00 | 0.00 | 57 | 1016.4 |
| 20260903101551 | 11 | 52 | 0.0 | 0.0 | 0.00 | 0.00 | 0.00 | 57 | 1016.3 |
| 20260903100049 | 11 | 52 | 0.0 | 1.6 | 0.00 | 0.00 | 0.00 | 57 | 1016.2 |
| 20260903094557 | 10 | 52 | 0.0 | 0.0 | 0.00 | 0.00 | 0.00 | 60 | 1016.1 |